This is the latest recevied weather packets stored in our database for station/object KD4MBW. If no packets are shown the sender has not sent any weather packets the latest 10 day(s).
| Time | Temp. | Humidity | Pressure | Rain* | Wind** | Luminosity | Snow |
|---|---|---|---|---|---|---|---|
| 1777727954 | 12.78° C | 99% | 1011.9 hPa | 0 mm | - | 38 W/m² | - |
| 1777727650 | 12.78° C | 99% | 1011.8 hPa | 0 mm | - | 18 W/m² | - |
| 1777727348 | 12.78° C | 99% | 1012 hPa | 0 mm | - | 21 W/m² | - |
| 1777727045 | 12.78° C | 99% | 1012.2 hPa | 0 mm | - | 16 W/m² | - |
| 1777726742 | 12.78° C | 99% | 1012 hPa | 3.05 mm | - | 21 W/m² | - |
| 1777726439 | 12.78° C | 99% | 1011.9 hPa | 4.83 mm | - | 13 W/m² | - |
| 1777726136 | 12.78° C | 99% | 1012.4 hPa | 6.1 mm | - | 9 W/m² | - |
| 1777725832 | 12.78° C | 99% | 1012.1 hPa | 7.11 mm | - | 9 W/m² | - |
| 1777725530 | 12.78° C | 99% | 1012.5 hPa | 4.83 mm | - | 9 W/m² | - |
| 1777725228 | 12.78° C | 99% | 1011.7 hPa | 1.78 mm | - | 7 W/m² | - |
| 1777724925 | 13.33° C | 99% | 1011.7 hPa | 0 mm | - | 6 W/m² | - |
| 1777724620 | 13.33° C | 99% | 1011.4 hPa | 1.27 mm | - | 12 W/m² | - |
| 1777724319 | 13.33° C | 99% | 1011.4 hPa | 3.05 mm | - | 15 W/m² | - |
| 1777724016 | 13.33° C | 99% | 1011 hPa | 3.56 mm | - | 32 W/m² | - |
| 1777723713 | 13.33° C | 99% | 1011.4 hPa | 1.78 mm | - | 20 W/m² | - |
| 1777723409 | 13.33° C | 99% | 1011.7 hPa | 4.32 mm | - | 12 W/m² | - |
| 1777723107 | 13.33° C | 99% | 1011.7 hPa | 6.1 mm | - | 14 W/m² | - |
| 1777722804 | 13.89° C | 99% | 1010.9 hPa | 1.27 mm | - | 16 W/m² | - |
| 1777722500 | 13.89° C | 99% | 1011.2 hPa | 0 mm | - | 6 W/m² | - |
| 1777722197 | 13.89° C | 99% | 1011 hPa | 0 mm | - | 9 W/m² | - |
| 1777721894 | 13.89° C | 99% | 1010.8 hPa | 0 mm | - | 8 W/m² | - |
| 1777721592 | 13.89° C | 99% | 1011 hPa | 0 mm | - | 15 W/m² | - |
| 1777721290 | 13.89° C | 99% | 1011.2 hPa | 0 mm | - | 6 W/m² | - |
| 1777720987 | 13.89° C | 99% | 1011.5 hPa | 0 mm | - | 2 W/m² | - |
| 1777720684 | 13.89° C | 99% | 1011.2 hPa | 1.78 mm | - | 3 W/m² | - |
* Rain latest hour (hover to see other rain measurements)
** Current wind speed in m/s (hover to see current wind gust speed)